Weather History for Goshen, IN

Change the Weather History Date:

Friday, September 9, 2011

  Actual Average Record
Temperature  
Mean Temperature 65 °F -  
Max Temperature 73 °F 77 °F 94 °F (1955)
Min Temperature 57 °F 55 °F 38 °F (1986)
Growing Degree Days 15 (Base 50)    
Moisture  
Dew Point 61 °F    
Average Humidity 90    
Maximum Humidity 100    
Minimum Humidity 64    
Precipitation  
Precipitation 0.41 in - - ()
Sea Level Pressure  
Sea Level Pressure 29.95 in    
Wind  
Wind Speed 5 mph (East)    
Max Wind Speed 12 mph    
Max Gust Speed -    
Visibility 6 miles    
Events Fog , Rain    
Averages and records for this station are not official NWS values.
T = Trace of Precipitation, MM = Missing Value Source: NWS Daily Summary

Daily Weather History Graph

Daily Weather History Graph

Search for Another Location

Airport:

Trip Planner

Search our weather history database for the weather conditions in past years. The results will help you decide how hot, cold, wet, or windy it might be!

Date:

Astronomy

Sep. 09, 2011 Rise Set
Actual Time 7:17 AM EDT 8:03 PM EDT
Civil Twilight 6:49 AM EDT 8:31 PM EDT
Nautical Twilight 6:15 AM EDT 9:04 PM EDT
Astronomical Twilight 5:41 AM EDT 9:38 PM EDT
Moon 6:29 PM EDT (9/9) 4:34 AM EDT (9/9)
Length of Visible Light 13h 42m
Length of Day
12h 46m
Waxing Gibbous, 93% of the Moon is Illuminated
Sep 9
Waxing Gibbous
Sep 12
Full
Sep 20
Last Quarter
Sep 27
New
Oct 3
First Quarter

Hourly Weather History & Observations

Time (EDT) Temp. Dew Point Humidity Pressure Visibility Wind Dir Wind Speed Gust Speed Precip Events Conditions
12:53 AM 63.0 °F 62.1 °F 97% 29.96 in 5.0 mi NE 9.2 mph - 0.00 in   Overcast
1:53 AM 63.0 °F 62.1 °F 97% 29.96 in 7.0 mi NE 6.9 mph - 0.01 in   Overcast
2:53 AM 63.0 °F 62.1 °F 97% 29.95 in 10.0 mi NE 6.9 mph - N/A   Overcast
3:46 AM 62.6 °F 60.8 °F 94% 29.94 in 5.0 mi NE 6.9 mph - 0.01 in Rain Light Rain
3:53 AM 63.0 °F 61.0 °F 93% 29.94 in 4.0 mi ENE 8.1 mph - 0.02 in Rain Light Rain
4:07 AM 62.6 °F 60.8 °F 94% 29.94 in 2.0 mi NE 6.9 mph - 0.11 in Rain Heavy Rain
4:16 AM 62.6 °F 60.8 °F 94% 29.94 in 3.0 mi NE 6.9 mph - 0.14 in Rain Light Rain
4:53 AM 62.1 °F 61.0 °F 96% 29.94 in 9.0 mi NE 5.8 mph - 0.14 in   Overcast
5:53 AM 62.1 °F 61.0 °F 96% 29.93 in 5.0 mi ENE 5.8 mph - 0.01 in Rain Light Rain
6:53 AM 62.1 °F 61.0 °F 96% 29.93 in 9.0 mi ENE 4.6 mph - 0.01 in   Overcast
7:53 AM 62.1 °F 61.0 °F 96% 29.94 in 5.0 mi Calm Calm - N/A   Overcast
8:53 AM 63.0 °F 62.1 °F 97% 29.95 in 3.0 mi Calm Calm - N/A   Overcast
9:53 AM 64.9 °F 63.0 °F 93% 29.95 in 4.0 mi East 3.5 mph - N/A   Overcast
10:14 AM 64.4 °F 62.6 °F 94% 29.96 in 4.0 mi NE 4.6 mph - N/A   Overcast
10:42 AM 66.2 °F 62.6 °F 88% 29.96 in 5.0 mi Calm Calm - N/A   Overcast
11:35 AM 66.2 °F 62.6 °F 88% 29.97 in 5.0 mi SE 5.8 mph - 0.00 in Rain Light Rain
11:53 AM 66.0 °F 63.0 °F 90% 29.96 in 6.0 mi East 4.6 mph - 0.00 in Rain Light Rain
12:15 PM 68.0 °F 62.6 °F 83% 29.97 in 9.0 mi East 4.6 mph - 0.00 in   Overcast
12:53 PM 69.1 °F 62.1 °F 78% 29.96 in 10.0 mi ESE 6.9 mph - 0.00 in   Overcast
1:53 PM 70.0 °F 63.0 °F 78% 29.95 in 10.0 mi SSW 5.8 mph - N/A   Mostly Cloudy
2:13 PM 69.8 °F 62.6 °F 78% 29.95 in 10.0 mi Calm Calm - N/A   Overcast
2:20 PM 71.6 °F 62.6 °F 73% 29.95 in 10.0 mi Variable 4.6 mph - N/A   Overcast
2:53 PM 73.0 °F 60.1 °F 64% 29.94 in 10.0 mi Calm Calm - N/A   Overcast
3:11 PM 71.6 °F 60.8 °F 69% 29.94 in 10.0 mi Calm Calm - N/A   Overcast
4:25 PM 69.8 °F 62.6 °F 78% 29.93 in 10.0 mi East 3.5 mph - 0.00 in   Overcast
4:48 PM 69.8 °F 62.6 °F 78% 29.93 in 10.0 mi South 3.5 mph - 0.00 in   Overcast
4:53 PM 70.0 °F 63.0 °F 78% 29.92 in 10.0 mi South 3.5 mph - 0.00 in   Overcast
5:49 PM 71.6 °F 62.6 °F 73% 29.93 in 10.0 mi East 3.5 mph - N/A   Mostly Cloudy
5:53 PM 72.0 °F 62.1 °F 71% 29.92 in 10.0 mi ENE 3.5 mph - N/A   Mostly Cloudy
6:03 PM 71.6 °F 62.6 °F 73% 29.93 in 10.0 mi Calm Calm - N/A   Mostly Cloudy
6:45 PM 64.4 °F 62.6 °F 94% 29.94 in 1.8 mi SE 11.5 mph - 0.13 in Rain Heavy Rain
6:53 PM 64.0 °F 61.0 °F 90% 29.94 in 1.2 mi South 3.5 mph - 0.21 in Rain Heavy Rain
6:58 PM 64.4 °F 62.6 °F 94% 29.94 in 3.0 mi South 3.5 mph - 0.01 in Rain Light Rain
7:53 PM 64.0 °F 62.1 °F 93% 29.95 in 8.0 mi Calm Calm - 0.01 in   Overcast
8:19 PM 64.4 °F 62.6 °F 94% 29.96 in 2.5 mi Calm Calm - N/A   Overcast
8:32 PM 64.4 °F 62.6 °F 94% 29.96 in 6.0 mi NNE 3.5 mph - N/A   Overcast
8:53 PM 64.0 °F 62.1 °F 93% 29.96 in 5.0 mi Calm Calm - N/A   Overcast
9:40 PM 60.8 °F 59.0 °F 94% 29.99 in 1.8 mi Calm Calm - N/A   Clear
9:49 PM 60.8 °F 59.0 °F 94% 29.99 in 0.8 mi Calm Calm - N/A   Clear
9:53 PM 61.0 °F 60.1 °F 97% 29.99 in 1.0 mi Calm Calm - N/A   Clear
10:00 PM 59.0 °F 59.0 °F 100% 29.99 in 1.5 mi Calm Calm - N/A   Partly Cloudy
10:10 PM 59.0 °F 59.0 °F 100% 29.98 in 2.5 mi South 3.5 mph - N/A   Clear
10:24 PM 60.8 °F 60.8 °F 100% 29.98 in 4.0 mi South 4.6 mph - N/A   Clear
10:45 PM 59.0 °F 57.2 °F 94% 29.98 in 2.5 mi Calm Calm - N/A   Clear
10:53 PM 59.0 °F 59.0 °F 100% 29.98 in 4.0 mi Calm Calm - N/A   Clear
11:37 PM 57.2 °F 57.2 °F 100% 29.99 in 1.8 mi Calm Calm - N/A   Clear
11:44 PM 57.2 °F 57.2 °F 100% 29.99 in 0.5 mi Calm Calm - N/A Fog Fog
11:53 PM 57.9 °F 57.9 °F 100% 29.98 in 0.5 mi Calm Calm - N/A Fog Fog